Weather History for Denver, CO

Change the Weather History Date:

Tuesday, December 13, 2011

  Actual Average Record
Temperature  
Mean Temperature 25 °F 30 °F  
Max Temperature 32 °F 42 °F 72 °F (1921)
Min Temperature 17 °F 17 °F -12 °F (1961)
Degree Days  
Heating Degree Days 40 35  
Month to date heating degree days 580 447  
Since 1 July heating degree days 1832 1829  
Cooling Degree Days 0 0  
Month to date cooling degree days 0 0  
Year to date cooling degree days 964 769  
Moisture  
Dew Point 17 °F    
Average Humidity 74    
Maximum Humidity 84    
Minimum Humidity 63    
Precipitation  
Precipitation 0.00 in 0.02 in 0.29 in (1951)
Month to date precipitation 0.29 0.16  
Year to date precipitation 16.82 14.11  
Snow  
Snow 0.00 in - - ()
Month to date snowfall 9.2  
Since 1 July snowfall 22.2  
Snow Depth 1.00 in    
Sea Level Pressure  
Sea Level Pressure 29.98 in    
Wind  
Wind Speed 6 mph (WSW)    
Max Wind Speed 10 mph    
Max Gust Speed 10 mph    
Visibility 8 miles    
Events      
T = Trace of Precipitation, MM = Missing Value Source: NWS Daily Summary

Daily Weather History Graph

Daily Weather History Graph

Search for Another Location

Airport:

Trip Planner

Search our weather history database for the weather conditions in past years. The results will help you decide how hot, cold, wet, or windy it might be!

Date:

Astronomy

Dec. 13, 2011 Rise Set
Actual Time 7:11 AM MST 4:34 PM MST
Civil Twilight 6:40 AM MST 5:04 PM MST
Nautical Twilight 6:06 AM MST 5:38 PM MST
Astronomical Twilight 5:34 AM MST 6:11 PM MST
Moon 7:51 PM MST (12/13) 9:23 AM MST (12/13)
Length of Visible Light 10h 23m
Length of Day
9h 22m
Waning Gibbous, 90% of the Moon is Illuminated
Dec 13
Waning Gibbous
Dec 17
Last Quarter
Dec 24
New
Dec 31
First Quarter
Jan 9
Full

Hourly Weather History & Observations

Time (MST) Temp. Windchill Dew Point Humidity Pressure Visibility Wind Dir Wind Speed Gust Speed Precip Events Conditions
12:53 AM 21.9 °F 12.5 °F 16.0 °F 78% 30.03 in 8.0 mi SSW 8.1 mph - N/A   Scattered Clouds
1:53 AM 19.0 °F 12.3 °F 12.9 °F 77% 30.03 in 9.0 mi SW 4.6 mph - N/A   Scattered Clouds
2:53 AM 19.9 °F 12.1 °F 14.0 °F 78% 30.03 in 8.0 mi SSW 5.8 mph - N/A   Scattered Clouds
3:53 AM 19.9 °F 9.3 °F 14.0 °F 78% 30.03 in 10.0 mi SW 9.2 mph - N/A   Scattered Clouds
4:53 AM 18.0 °F 7.7 °F 12.9 °F 81% 30.03 in 9.0 mi West 8.1 mph - N/A   Scattered Clouds
5:53 AM 17.1 °F 7.6 °F 12.0 °F 81% 30.05 in 9.0 mi WSW 6.9 mph - N/A   Scattered Clouds
6:53 AM 18.0 °F 9.8 °F 12.9 °F 81% 30.06 in 8.0 mi WSW 5.8 mph - N/A   Scattered Clouds
7:53 AM 19.9 °F 12.1 °F 14.0 °F 78% 30.04 in 7.0 mi WSW 5.8 mph - N/A   Partly Cloudy
8:53 AM 25.0 °F 19.3 °F 16.0 °F 69% 30.04 in 7.0 mi SW 4.6 mph - N/A   Partly Cloudy
9:53 AM 28.0 °F 22.8 °F 19.0 °F 69% 30.03 in 7.0 mi West 4.6 mph - N/A   Partly Cloudy
10:53 AM 28.9 °F 25.2 °F 19.9 °F 69% 30.02 in 6.0 mi ENE 3.5 mph - N/A   Haze
11:36 AM 30.2 °F 25.4 °F 19.4 °F 64% 29.90 in 8.0 mi North 4.6 mph - N/A   Partly Cloudy
11:53 AM 30.0 °F - 19.9 °F 66% 29.98 in 8.0 mi Calm Calm - N/A   Scattered Clouds
12:53 PM 30.9 °F 26.2 °F 21.0 °F 67% 29.94 in 8.0 mi NNE 4.6 mph - N/A   Scattered Clouds
1:53 PM 32.0 °F 26.4 °F 21.9 °F 66% 29.92 in 7.0 mi NE 5.8 mph - N/A   Scattered Clouds
2:53 PM 30.9 °F 25.2 °F 23.0 °F 72% 29.91 in 7.0 mi NNE 5.8 mph - N/A   Scattered Clouds
3:53 PM 26.1 °F 19.4 °F 19.9 °F 78% 29.94 in 6.0 mi NE 5.8 mph - N/A   Haze
4:53 PM 24.1 °F 18.2 °F 18.0 °F 77% 29.96 in 9.0 mi North 4.6 mph - N/A   Scattered Clouds
5:53 PM 24.1 °F - 18.0 °F 77% 29.97 in 10.0 mi Calm Calm - N/A   Mostly Cloudy
6:53 PM 26.1 °F - 18.0 °F 71% 29.96 in 9.0 mi Calm Calm - N/A   Mostly Cloudy
7:53 PM 23.0 °F 13.9 °F 17.1 °F 78% 29.96 in 7.0 mi West 8.1 mph - N/A   Mostly Cloudy
8:53 PM 21.9 °F 13.4 °F 17.1 °F 82% 29.93 in 6.0 mi WSW 6.9 mph - N/A   Partly Cloudy
9:53 PM 24.1 °F 16.0 °F 19.0 °F 81% 29.90 in 6.0 mi SW 6.9 mph - N/A   Partly Cloudy
10:53 PM 24.1 °F 14.4 °F 19.0 °F 81% 29.88 in 6.0 mi SW 9.2 mph - N/A   Partly Cloudy
11:53 PM 23.0 °F 13.9 °F 18.0 °F 81% 29.85 in 6.0 mi WSW 8.1 mph - N/A   Partly Cloudy